Today

Time Wind Dr Wind Spd
mph
Wind Gust
mph
Hum In
%
Humid
%
TempI
F
Temp
F
Raw Bar
in
Tot Rain
in
UV Solar
W/sqm
DailyRain
in
HourRain
in
24HrRain
in
RainRate
in
04/01/20 12:01:40 AM 311 0.0 0.0 40 64 73.6 59.6 29.907 4.36 0.0 0 0.00 0.00 0.00 0.00
04/01/20 12:02:29 AM 311 0.0 0.0 40 64 73.6 59.6 29.908 4.36 0.0 0 0.00 0.00 0.00 0.00
04/01/20 12:03:20 AM 311 0.0 0.0 40 64 73.6 59.6 29.906 4.36 0.0 0 0.00 0.00 0.00 0.00
04/01/20 12:04:32 AM 311 0.0 0.0 40 65 73.6 59.6 29.907 4.36 0.0 0 0.00 0.00 0.00 0.00
04/01/20 12:05:24 AM 311 0.0 0.0 40 65 73.5 59.6 29.905 4.36 0.0 0 0.00 0.00 0.00 0.00
04/01/20 12:06:17 AM 311 0.0 0.0 40 65 73.6 59.6 29.904 4.36 0.0 0 0.00 0.00 0.00 0.00
04/01/20 12:07:30 AM 311 0.0 0.0 40 65 73.6 59.6 29.905 4.36 0.0 0 0.00 0.00 0.00 0.00
04/01/20 12:08:16 AM 311 0.0 0.0 40 64 73.5 59.6 29.906 4.36 0.0 0 0.00 0.00 0.00 0.00
04/01/20 12:09:27 AM 311 0.0 0.0 40 64 73.5 59.7 29.906 4.36 0.0 0 0.00 0.00 0.00 0.00
04/01/20 12:10:19 AM 311 0.0 0.0 40 64 73.5 59.7 29.906 4.36 0.0 0 0.00 0.00 0.00 0.00
04/01/20 12:11:32 AM 311 0.0 0.0 40 64 73.5 59.7 29.904 4.36 0.0 0 0.00 0.00 0.00 0.00
04/01/20 12:12:24 AM 310 0.0 0.0 40 64 73.5 59.7 29.906 4.36 0.0 0 0.00 0.00 0.00 0.00
04/01/20 12:13:31 AM 309 0.0 0.0 40 65 73.5 59.7 29.906 4.36 0.0 0 0.00 0.00 0.00 0.00
04/01/20 12:14:23 AM 229 2.0 2.0 40 65 73.5 59.7 29.904 4.36 0.0 0 0.00 0.00 0.00 0.00
04/01/20 12:15:36 AM 229 2.0 3.0 40 66 73.5 59.8 29.905 4.36 0.0 0 0.00 0.00 0.00 0.00
04/01/20 12:16:25 AM 229 1.0 3.0 40 66 73.5 59.7 29.904 4.36 0.0 0 0.00 0.00 0.00 0.00
04/01/20 12:17:16 AM 229 0.0 3.0 40 66 73.5 59.7 29.903 4.36 0.0 0 0.00 0.00 0.00 0.00
04/01/20 12:18:26 AM 229 0.0 3.0 40 66 73.5 59.8 29.905 4.36 0.0 0 0.00 0.00 0.00 0.00
04/01/20 12:19:36 AM 229 0.0 3.0 40 67 73.4 59.8 29.902 4.36 0.0 0 0.00 0.00 0.00 0.00
04/01/20 12:20:28 AM 229 0.0 3.0 40 67 73.4 59.8 29.903 4.36 0.0 0 0.00 0.00 0.00 0.00
04/01/20 12:21:19 AM 229 0.0 3.0 40 67 73.4 59.8 29.902 4.36 0.0 0 0.00 0.00 0.00 0.00
04/01/20 12:22:32 AM 229 0.0 3.0 40 67 73.4 59.8 29.901 4.36 0.0 0 0.00 0.00 0.00 0.00
04/01/20 12:23:24 AM 229 0.0 3.0 40 67 73.4 59.8 29.905 4.36 0.0 0 0.00 0.00 0.00 0.00
04/01/20 12:24:31 AM 229 0.0 3.0 40 67 73.4 59.8 29.901 4.36 0.0 0 0.00 0.00 0.00 0.00
04/01/20 12:25:23 AM 229 0.0 3.0 40 67 73.4 59.7 29.902 4.36 0.0 0 0.00 0.00 0.00 0.00
04/01/20 12:26:35 AM 229 0.0 3.0 40 67 73.4 59.7 29.904 4.36 0.0 0 0.00 0.00 0.00 0.00
04/01/20 12:27:27 AM 229 0.0 3.0 40 67 73.4 59.7 29.901 4.36 0.0 0 0.00 0.00 0.00 0.00
04/01/20 12:28:19 AM 229 0.0 3.0 40 67 73.4 59.7 29.904 4.36 0.0 0 0.00 0.00 0.00 0.00
04/01/20 12:29:29 AM 229 0.0 3.0 40 67 73.3 59.7 29.904 4.36 0.0 0 0.00 0.00 0.00 0.00
04/01/20 12:30:23 AM 229 0.0 3.0 40 67 73.4 59.7 29.903 4.36 0.0 0 0.00 0.00 0.00 0.00
04/01/20 12:31:33 AM 229 0.0 3.0 40 67 73.3 59.6 29.901 4.36 0.0 0 0.00 0.00 0.00 0.00
04/01/20 12:32:25 AM 229 0.0 3.0 40 67 73.3 59.7 29.900 4.36 0.0 0 0.00 0.00 0.00 0.00
04/01/20 12:33:17 AM 229 0.0 3.0 40 67 73.3 59.6 29.902 4.36 0.0 0 0.00 0.00 0.00 0.00
04/01/20 12:34:27 AM 229 0.0 3.0 40 67 73.3 59.6 29.898 4.36 0.0 0 0.00 0.00 0.00 0.00
04/01/20 12:35:15 AM 229 1.0 3.0 40 67 73.3 59.6 29.899 4.36 0.0 0 0.00 0.00 0.00 0.00
04/01/20 12:36:28 AM 229 0.0 3.0 40 67 73.3 59.5 29.899 4.36 0.0 0 0.00 0.00 0.00 0.00
04/01/20 12:37:20 AM 229 0.0 3.0 40 67 73.3 59.5 29.899 4.36 0.0 0 0.00 0.00 0.00 0.00
04/01/20 12:38:30 AM 229 0.0 3.0 40 67 73.3 59.4 29.897 4.36 0.0 0 0.00 0.00 0.00 0.00
04/01/20 12:39:22 AM 229 0.0 3.0 40 67 73.3 59.4 29.900 4.36 0.0 0 0.00 0.00 0.00 0.00
04/01/20 12:40:32 AM 229 0.0 3.0 40 67 73.3 59.3 29.901 4.36 0.0 0 0.00 0.00 0.00 0.00
04/01/20 12:41:23 AM 229 0.0 3.0 40 67 73.3 59.3 29.898 4.36 0.0 0 0.00 0.00 0.00 0.00
04/01/20 12:42:36 AM 229 0.0 3.0 40 67 73.3 59.3 29.897 4.36 0.0 0 0.00 0.00 0.00 0.00
04/01/20 12:43:25 AM 229 1.0 3.0 40 67 73.3 59.2 29.897 4.36 0.0 0 0.00 0.00 0.00 0.00
04/01/20 12:44:17 AM 229 1.0 3.0 40 67 73.3 59.2 29.896 4.36 0.0 0 0.00 0.00 0.00 0.00
04/01/20 12:45:27 AM 236 2.0 3.0 41 67 73.3 59.2 29.897 4.36 0.0 0 0.00 0.00 0.00 0.00
04/01/20 12:46:16 AM 236 2.0 3.0 41 67 73.3 59.1 29.897 4.36 0.0 0 0.00 0.00 0.00 0.00
04/01/20 12:47:28 AM 275 2.0 3.0 41 67 73.3 59.1 29.897 4.36 0.0 0 0.00 0.00 0.00 0.00
04/01/20 12:48:17 AM 275 3.0 3.0 41 67 73.2 59.1 29.896 4.36 0.0 0 0.00 0.00 0.00 0.00
04/01/20 12:49:33 AM 275 1.0 3.0 41 67 73.3 59.0 29.897 4.36 0.0 0 0.00 0.00 0.00 0.00
04/01/20 12:50:19 AM 275 1.0 3.0 41 67 73.3 59.0 29.897 4.36 0.0 0 0.00 0.00 0.00 0.00
04/01/20 12:51:32 AM 275 1.0 3.0 41 67 73.2 59.0 29.897 4.36 0.0 0 0.00 0.00 0.00 0.00
04/01/20 12:52:24 AM 275 0.0 3.0 41 67 73.2 58.9 29.895 4.36 0.0 0 0.00 0.00 0.00 0.00
04/01/20 12:53:33 AM 275 1.0 3.0 41 67 73.2 58.9 29.895 4.36 0.0 0 0.00 0.00 0.00 0.00
04/01/20 12:54:25 AM 275 1.0 3.0 41 67 73.2 58.9 29.896 4.36 0.0 0 0.00 0.00 0.00 0.00
04/01/20 12:55:20 AM 275 1.0 3.0 41 67 73.2 58.9 29.895 4.36 0.0 0 0.00 0.00 0.00 0.00
04/01/20 12:56:30 AM 275 1.0 3.0 41 67 73.2 58.9 29.893 4.36 0.0 0 0.00 0.00 0.00 0.00
04/01/20 12:57:22 AM 275 1.0 3.0 41 67 73.1 58.8 29.894 4.36 0.0 0 0.00 0.00 0.00 0.00
04/01/20 12:58:32 AM 275 1.0 3.0 41 67 73.1 58.8 29.894 4.36 0.0 0 0.00 0.00 0.00 0.00
04/01/20 12:59:23 AM 275 0.0 3.0 41 67 73.1 58.8 29.893 4.36 0.0 0 0.00 0.00 0.00 0.00
04/01/20 1:00:36 AM 275 0.0 3.0 41 67 73.1 58.8 29.895 4.36 0.0 0 0.00 0.00 0.00 0.00
04/01/20 1:01:25 AM 275 0.0 3.0 41 67 73.1 58.8 29.894 4.36 0.0 0 0.00 0.00 0.00 0.00
04/01/20 1:02:17 AM 275 0.0 3.0 41 67 73.1 58.8 29.894 4.36 0.0 0 0.00 0.00 0.00 0.00
04/01/20 1:03:30 AM 275 0.0 3.0 41 67 73.1 58.8 29.894 4.36 0.0 0 0.00 0.00 0.00 0.00
04/01/20 1:04:22 AM 275 0.0 3.0 41 67 73.0 58.8 29.894 4.36 0.0 0 0.00 0.00 0.00 0.00
04/01/20 1:05:34 AM 275 0.0 3.0 41 67 73.1 58.8 29.894 4.36 0.0 0 0.00 0.00 0.00 0.00
04/01/20 1:06:20 AM 275 0.0 3.0 41 67 73.1 58.8 29.893 4.36 0.0 0 0.00 0.00 0.00 0.00
04/01/20 1:07:33 AM 275 0.0 3.0 41 67 73.0 58.8 29.894 4.36 0.0 0 0.00 0.00 0.00 0.00
04/01/20 1:08:25 AM 275 0.0 3.0 41 68 73.0 58.8 29.896 4.36 0.0 0 0.00 0.00 0.00 0.00
04/01/20 1:09:35 AM 275 0.0 3.0 41 68 73.0 58.8 29.894 4.36 0.0 0 0.00 0.00 0.00 0.00
04/01/20 1:10:27 AM 275 0.0 3.0 41 68 73.1 58.7 29.892 4.36 0.0 0 0.00 0.00 0.00 0.00
04/01/20 1:11:19 AM 275 0.0 3.0 41 68 73.0 58.7 29.893 4.36 0.0 0 0.00 0.00 0.00 0.00
04/01/20 1:12:26 AM 275 0.0 3.0 41 69 73.0 58.7 29.895 4.36 0.0 0 0.00 0.00 0.00 0.00
04/01/20 1:13:17 AM 275 0.0 3.0 41 69 73.0 58.7 29.892 4.36 0.0 0 0.00 0.00 0.00 0.00
04/01/20 1:14:30 AM 275 0.0 3.0 41 68 73.1 58.7 29.892 4.36 0.0 0 0.00 0.00 0.00 0.00
04/01/20 1:15:22 AM 275 0.0 3.0 41 68 73.0 58.6 29.892 4.36 0.0 0 0.00 0.00 0.00 0.00
04/01/20 1:16:35 AM 275 0.0 3.0 41 68 73.0 58.6 29.892 4.36 0.0 0 0.00 0.00 0.00 0.00
04/01/20 1:17:24 AM 275 0.0 3.0 41 68 73.0 58.6 29.889 4.36 0.0 0 0.00 0.00 0.00 0.00
04/01/20 1:18:34 AM 275 0.0 3.0 41 69 73.0 58.5 29.889 4.36 0.0 0 0.00 0.00 0.00 0.00
04/01/20 1:19:26 AM 275 0.0 3.0 41 69 73.0 58.5 29.889 4.36 0.0 0 0.00 0.00 0.00 0.00
04/01/20 1:20:21 AM 275 0.0 3.0 41 69 73.0 58.5 29.889 4.36 0.0 0 0.00 0.00 0.00 0.00
04/01/20 1:21:30 AM 275 0.0 3.0 41 69 73.0 58.5 29.889 4.36 0.0 0 0.00 0.00 0.00 0.00
04/01/20 1:22:19 AM 275 0.0 3.0 41 69 73.0 58.5 29.888 4.36 0.0 0 0.00 0.00 0.00 0.00
04/01/20 1:23:32 AM 275 0.0 3.0 41 69 73.0 58.5 29.890 4.36 0.0 0 0.00 0.00 0.00 0.00
04/01/20 1:24:21 AM 275 0.0 3.0 41 69 73.0 58.4 29.886 4.36 0.0 0 0.00 0.00 0.00 0.00
04/01/20 1:25:34 AM 275 0.0 3.0 41 69 73.0 58.4 29.886 4.36 0.0 0 0.00 0.00 0.00 0.00

University Police wind advisory reference

For campus closure information please call the campus Emergency Hotline at (909) 537-5999

© All rights reserved. Unauthorized duplication or distribution is prohibited

Never base important decisions on this or any weather information obtained from the Internet

California State University, San Bernardino
5500 University Parkway, San Bernardino, CA. 92407
Phone: (909) 537-5108, Email: Weather Webmaster
Last Updated: